Theta_e
335 332 333 329 323 330 328 327 328 326 328 329 325 325 330 335 334 332 331 330 329 327 324 325 324 325 324 326 326 327 328 330 329
331 329 331 328 321 328 329 332 331 331 330 329 327 325 328 334 332 332 330 329 328 325 325 326 325 325 329 330 329 331 332 332 330
329 328 328 329 321 328 327 331 331 329 328 327 326 326 330 332 331 329 327 325 326 325 323 325 325 326 330 333 333 333 332 333 333
328 327 327 328 324 326 326 328 328 327 325 324 324 324 328 330 328 325 323 323 325 323 323 324 323 326 327 330 331 331 331 331 332
325 326 328 325 327 321 324 326 325 324 324 323 323 322 323 328 327 326 323 323 324 323 322 322 323 324 325 326 328 329 330 330 330
325 326 327 326 325 324 320 326 325 324 324 323 323 323 322 324 326 326 324 323 323 323 321 322 322 323 323 323 325 328 329 330 330
326 326 327 324 325 324 322 325 325 323 322 323 323 321 322 321 322 323 322 323 323 322 321 321 321 321 321 321 323 326 328 328 329
325 326 326 323 326 322 325 324 324 323 323 323 322 321 321 320 319 322 321 323 325 323 320 320 320 320 320 320 322 323 326 327 327
323 325 324 324 327 324 321 324 325 323 323 323 322 322 321 319 321 321 320 320 323 320 321 320 319 319 319 320 321 322 323 325 325
321 324 323 324 327 324 321 324 323 322 323 324 322 321 320 319 319 322 321 320 321 319 319 320 319 319 320 319 320 321 322 322 324
323 322 323 324 325 321 318 321 321 322 323 322 322 321 320 319 319 318 319 320 318 322 324 323 321 320 320 318 318 319 320 320 322
327 322 321 322 325 321 322 323 323 323 322 322 323 321 320 319 318 318 319 318 319 322 318 320 318 318 317 317 318 318 318 319 320
329 323 320 321 324 323 323 324 323 323 322 322 322 320 319 319 319 318 318 318 317 320 318 319 319 318 317 317 317 317 317 317 319
330 326 323 318 323 324 323 323 324 323 322 322 321 319 319 318 318 317 317 317 318 319 318 316 315 317 319 318 316 316 317 316 317
329 328 325 321 322 323 323 324 324 323 322 321 321 319 319 318 318 317 317 317 317 318 318 316 316 317 316 316 316 316 315 315 315
331 329 326 325 322 323 323 323 324 323 321 320 319 320 320 318 318 317 317 316 316 316 317 317 316 317 316 315 314 316 315 315 314
331 330 328 326 324 323 324 323 323 323 321 321 319 315 318 318 318 318 317 316 316 317 316 316 315 315 315 315 314 313 315 315 314
333 331 329 328 325 324 324 324 324 323 321 321 320 316 316 316 318 318 317 317 317 316 316 315 315 314 314 314 313 311 312 314 317
334 332 331 329 325 324 324 325 324 323 322 321 320 319 318 315 317 318 317 317 316 316 316 316 316 315 315 314 313 312 311 312 317
333 333 333 330 328 325 324 324 324 323 323 322 320 318 318 318 316 316 317 317 317 316 316 316 316 316 315 314 313 313 313 310 314
Wind_Speed
18 21 20 24 21 22 23 21 19 19 21 21 20 19 19 21 24 24 22 21 17 17 17 17 17 18 18 18 17 18 18 18 18
22 21 18 21 19 23 21 19 23 24 22 22 20 19 17 23 26 22 20 19 16 17 17 17 17 18 17 15 17 16 16 17 17
21 21 20 17 18 23 22 20 22 22 22 20 17 16 18 25 25 22 19 14 14 15 16 15 15 16 16 22 20 18 18 18 16
20 21 20 18 18 20 21 18 20 19 18 15 14 14 15 19 19 17 15 12 14 14 14 14 14 15 16 18 18 20 18 19 17
20 20 19 17 18 16 18 18 17 15 15 14 14 12 11 12 14 17 16 15 14 13 13 13 13 12 14 15 18 18 18 18 17
21 21 18 16 17 15 18 19 17 17 17 14 15 10 9 12 13 16 14 14 11 12 12 13 12 12 12 13 16 16 18 17 18
22 20 18 17 19 14 22 20 17 15 15 14 12 14 15 12 12 10 9 11 11 11 11 12 11 11 11 10 12 13 16 17 17
22 21 18 20 16 18 23 21 17 14 14 17 15 17 14 10 9 10 10 12 11 12 10 11 11 11 11 11 11 11 14 15 16
21 21 19 18 20 17 19 19 16 13 12 15 15 15 13 11 13 10 11 8 11 9 10 9 10 9 9 10 11 10 9 12 14
20 21 19 18 17 18 19 20 16 13 11 15 15 14 13 12 11 11 11 7 10 6 7 8 8 8 9 9 9 9 8 6 9
17 20 20 20 17 16 21 22 15 12 11 10 13 14 14 12 11 8 8 9 6 8 9 9 8 7 7 7 7 7 6 7 7
16 17 20 19 19 20 23 17 13 11 11 11 13 13 10 5 9 9 6 6 3 9 4 6 4 5 4 5 6 6 5 5 5
16 16 18 21 22 22 22 19 12 11 15 17 13 9 4 3 8 5 5 5 2 4 5 4 3 3 3 4 5 5 5 5 4
20 19 18 22 24 22 22 18 14 16 18 17 14 9 5 5 3 4 4 3 3 4 4 1 1 1 3 4 3 3 4 4 4
23 20 20 21 23 23 23 19 13 18 17 17 16 12 7 5 5 6 5 5 5 5 5 3 4 3 2 1 1 1 2 3 2
27 24 22 23 25 25 24 19 15 16 18 19 12 9 9 8 7 7 6 6 7 7 8 6 6 6 4 4 1 1 1 1 2
28 27 26 25 25 26 25 24 19 17 21 10 10 1 2 8 10 11 10 9 10 10 9 9 9 8 7 7 4 5 2 2 1
28 29 27 27 29 28 25 28 24 23 25 13 6 2 4 3 9 14 15 13 15 13 12 11 10 10 9 8 7 4 6 4 5
28 30 31 31 31 31 29 31 29 27 25 19 14 5 8 3 1 10 18 17 19 17 17 15 14 13 12 11 9 7 6 6 5
28 28 29 31 32 33 31 30 29 29 28 26 21 10 10 6 3 2 6 21 21 22 20 18 16 16 15 14 13 11 9 8 8
Wind_Direction
117 115 117 110 107 106 107 110 113 115 108 111 102 98 98 110 103 95 88 84 78 79 78 77 78 74 82 78 78 76 72 63 63
124 121 117 110 112 118 110 106 110 111 113 107 101 99 103 108 100 93 89 78 77 80 82 81 81 84 83 80 81 75 71 73 70
130 127 128 118 117 124 117 108 114 120 113 109 106 99 101 103 101 93 80 75 79 84 83 82 86 89 70 73 75 75 69 71 73
141 132 129 131 119 134 127 114 109 109 108 110 113 98 102 95 93 87 77 77 85 85 85 84 87 96 79 76 72 71 71 67 69
145 148 131 135 124 136 129 131 121 117 126 117 111 96 104 100 90 87 86 89 88 84 83 84 89 90 86 80 72 70 71 72 73
145 140 141 138 141 131 144 134 126 119 120 120 114 89 101 113 101 98 88 88 94 94 88 86 87 91 87 88 86 73 70 75 72
153 147 148 148 141 135 143 141 131 128 131 138 123 103 112 100 92 94 83 98 95 93 94 90 85 87 89 81 91 82 76 75 76
158 155 154 155 148 143 147 151 142 127 134 138 124 122 122 116 119 111 109 101 97 98 91 92 86 85 82 79 97 95 75 79 82
165 163 161 161 154 153 162 158 157 131 136 144 135 131 120 109 117 112 109 105 111 96 98 94 90 89 82 80 101 102 82 76 81
164 170 169 166 162 166 166 169 162 147 124 157 148 135 124 109 124 115 110 104 105 97 94 102 86 88 79 83 106 106 100 88 88
166 173 178 176 166 164 160 161 160 150 146 146 154 141 131 118 126 126 131 113 85 113 97 94 99 76 84 77 87 105 108 99 104
175 176 182 178 171 164 165 169 171 162 165 155 159 150 126 115 136 121 125 119 103 123 85 116 105 82 67 80 79 87 87 97 88
187 181 182 180 178 175 177 181 189 171 171 150 156 149 131 127 137 126 129 129 140 144 107 88 75 81 77 75 75 77 73 79 90
199 189 181 178 182 184 187 191 200 179 172 166 161 149 164 150 158 172 166 164 186 172 163 206 143 159 102 91 65 67 74 69 66
206 199 188 182 184 190 194 195 196 191 178 175 168 168 181 197 198 196 216 213 220 218 242 241 177 186 196 304 254 309 43 64 56
210 208 197 194 193 195 198 197 203 194 181 159 163 178 186 199 220 231 235 238 226 235 256 238 219 216 234 239 258 207 253 82 46
214 213 208 204 202 202 204 203 201 197 185 179 144 97 233 208 215 214 235 236 239 245 259 241 239 241 236 247 270 217 216 232 304
220 218 216 213 207 206 209 206 208 197 197 192 169 145 211 191 219 221 220 219 230 244 252 250 247 245 245 245 248 250 237 217 248
219 224 222 221 215 210 210 211 213 211 197 198 208 204 154 171 228 227 225 228 226 233 242 250 252 249 249 247 247 248 251 214 231
221 223 228 223 220 216 216 216 218 216 215 202 203 193 176 181 137 195 223 230 233 233 235 246 253 254 252 250 249 247 244 240 225